SCP
0 0 0 0 0 0 0 0 0 0 0 0 0 0 0 0 0 0 0 0 0 0 0 0 0 0 1 1 1 1 1 1 1 3 1 1 1 1 1 1 0 0 0 0
0 0 0 0 0 0 0 0 0 0 0 0 0 0 0 0 0 0 0 0 0 0 0 0 0 1 2 1 2 2 1 2 2 3 4 2 1 2 1 1 1 1 0 0
0 0 0 0 0 0 0 0 0 0 0 0 0 0 0 0 0 0 0 0 0 0 0 0 0 0 3 2 2 2 2 2 3 4 4 5 4 3 4 3 3 2 1 1
0 0 0 0 0 0 0 0 0 0 0 0 0 0 0 0 0 0 0 0 0 0 0 0 0 0 2 3 2 1 1 2 5 6 6 3 4 5 3 4 4 4 2 2
0 0 0 0 0 0 0 0 0 0 0 0 0 0 0 0 0 0 0 0 0 0 0 0 0 0 0 4 3 2 1 3 4 5 4 4 4 4 6 7 5 4 4 4
0 0 0 0 -0 0 0 0 0 0 0 0 0 0 0 0 0 0 0 0 0 0 0 0 0 0 0 6 4 3 2 3 2 3 4 4 5 4 5 6 6 6 5 3
0 0 0 0 0 0 0 0 0 0 0 0 0 0 0 0 0 0 0 0 0 0 0 0 0 0 0 3 5 3 3 4 3 4 3 4 3 3 3 5 4 3 2 3
0 0 0 0 -0 0 0 0 0 0 0 0 0 0 0 -0 0 0 0 0 0 0 0 0 0 0 0 0 4 5 4 4 3 3 4 4 3 2 4 2 2 2 2 2
0 -0 0 0 0 0 0 0 0 0 0 0 0 0 0 0 -0 0 0 0 0 0 0 0 0 0 0 0 2 4 5 7 5 2 2 3 3 3 3 2 2 2 1 1
0 0 0 0 0 0 0 0 0 0 0 0 0 0 0 0 0 0 0 0 -0 0 0 0 0 0 0 0 0 2 7 7 7 7 5 4 4 2 2 2 2 1 1 0
0 0 0 0 0 0 0 0 0 0 0 0 0 0 -0 -0 0 0 0 0 -0 -0 -0 -0 0 0 0 0 0 1 3 9 7 7 4 3 2 2 1 1 1 0 0 0
0 0 -0 0 0 0 0 0 0 0 0 0 0 0 0 0 0 -0 -0 -0 0 -0 -1 -0 0 0 0 0 0 0 9 8 6 4 3 2 1 0 0 0 0 0 0 0
0 0 -0 0 0 0 0 0 0 0 0 0 0 0 0 -0 -0 0 0 0 1 1 -0 -0 0 0 0 0 3 8 9 6 4 1 0 0 0 0 0 0 0 0 0 0
0 -0 -0 0 0 0 -0 0 0 0 0 0 -0 -0 -0 -0 -0 -0 0 0 0 3 3 4 4 5 5 7 9 7 5 3 1 0 0 0 0 0 0 0 0 0 0 0
0 0 -0 0 -0 -0 -0 -0 -0 0 0 -0 0 -0 -0 0 -0 -0 0 0 0 1 3 4 6 6 3 3 5 3 2 0 0 0 0 0 0 0 0 0 0 0 0 0
-0 0 -0 -0 -0 0 -0 -0 -0 -0 -0 -0 -0 0 -0 -0 -0 -0 -0 0 0 2 2 3 2 3 3 1 0 0 0 0 0 0 0 0 0 0 0 0 0 0 0 0
0 0 -0 -0 -0 -0 -0 -0 -0 -0 -0 -0 0 0 0 -0 -0 -0 0 0 0 0 0 1 1 1 0 0 0 0 0 0 0 0 0 0 0 0 0 0 0 0 0 0
0 0 0 -0 -0 0 0 -0 -0 -0 0 -0 0 -0 -0 -0 -0 -0 0 0 0 0 0 0 0 0 0 0 0 0 0 0 0 0 0 0 0 0 0 0 0 0 0 0
-0 -0 0 -0 0 -0 0 -0 -0 0 0 0 0 -0 -0 -0 -0 -0 -0 -0 0 0 0 0 0 0 0 0 0 0 0 0 0 0 0 0 0 0 0 0 0 0 0 0
-0 -0 0 0 0 0 0 -0 -0 0 0 -0 0 -0 -0 -0 -0 0 0 0 -0 -0 -0 0 0 0 0 0 0 0 0 0 0 0 0 0 0 0 0 0 0 0 0 0
0 0 0 0 0 0 -0 -0 -0 0 0 0 0 0 0 -0 -0 -0 -0 -0 -0 -0 -0 -0 -0 0 0 0 0 0 0 0 0 0 0 0 0 0 0 0 0 0 0 0
0 0 0 0 0 0 -0 -0 0 0 -0 0 0 0 -0 -0 -0 -0 -0 -0 -0 -0 -0 -0 0 -0 0 0 0 0 0 0 0 0 0 0 0 0 0 0 0 0 0 0
-0 0 0 0 0 0 0 -0 -0 -0 -0 0 -0 -0 -0 -0 -0 -0 -0 -0 -0 -0 -0 0 -0 0 0 0 0 0 0 0 0 0 0 0 0 0 0 0 0 0 0 0
0 0 0 0 0 0 -0 -0 -0 -0 -0 -0 -0 -0 -0 -0 -0 -0 -0 -0 -0 -0 -0 -0 -0 -0 -0 0 0 0 0 0 0 0 0 0 0 0 0 0 0 0 0 0
0 0 0 0 0 0 -0 -0 -0 -0 0 -0 0 -0 -0 -0 -0 -0 -0 -0 -0 -0 0 0 0 0 0 0 0 0 0 0 0 0 0 0 0 0 0 0 0 0 0 0
0 0 0 0 -0 0 -0 -0 -0 -0 -0 -0 -0 -0 -0 -0 -0 -0 -0 -0 -0 -0 0 0 0 0 0 0 0 0 0 0 0 0 0 0 0 0 0 0 0 0 0 0
Wind_Speed_500mb
11 11 27 13 20 23 25 28 28 23 15 22 39 50 36 25 29 39 49 68 54 52 55 55 42 45 40 62 77 96 90 74 66 73 68 63 69 57 49 47 44 39 36 33
5 23 19 22 24 24 32 39 46 39 32 29 40 43 25 17 16 45 51 60 75 74 70 69 61 52 43 50 70 93 95 87 89 77 74 70 66 63 52 46 50 43 46 42
25 27 15 28 35 34 36 35 35 38 35 36 35 39 27 16 17 39 63 71 86 89 74 68 71 62 59 56 68 80 88 89 87 75 85 78 66 59 59 61 56 61 50 45
25 8 19 8 23 30 32 34 34 29 17 23 10 32 33 11 19 18 31 62 72 94 94 82 75 74 75 74 65 76 92 92 93 87 82 80 70 81 79 73 64 56 51 48
30 35 28 18 19 8 24 25 11 18 3 4 16 6 11 11 14 17 20 35 67 85 102 102 90 86 76 79 81 79 96 99 97 96 80 74 75 84 93 73 67 62 61 53
36 33 14 17 18 19 38 25 11 12 3 11 22 11 27 18 16 16 18 40 47 85 88 99 83 73 79 92 83 77 106 107 104 87 88 92 80 76 72 76 72 62 57 42
20 32 35 24 20 25 16 9 4 8 12 9 17 9 23 15 25 28 35 44 54 63 79 90 79 70 68 86 82 84 97 107 104 96 96 82 71 66 68 62 63 48 44 43
14 10 19 4 27 17 14 20 9 8 8 11 11 11 22 37 26 30 60 64 58 56 72 92 83 89 83 83 76 93 99 105 107 93 93 83 66 71 68 60 50 45 46 48
9 9 11 27 18 14 8 10 23 18 18 2 7 12 20 33 29 29 30 48 48 55 59 76 90 95 91 91 84 85 102 106 109 101 93 81 71 72 66 61 49 46 48 40
7 11 7 26 12 12 12 8 5 4 12 10 10 12 20 14 9 13 10 18 38 42 56 54 77 93 98 97 90 75 108 109 106 97 86 74 68 68 62 54 48 44 40 43
14 8 6 14 7 4 6 4 7 7 7 8 5 14 3 12 7 14 17 36 55 59 60 72 72 80 103 105 89 79 102 112 99 88 83 74 70 62 55 51 51 43 42 39
9 6 7 12 9 5 6 6 2 6 9 9 7 18 2 1 5 8 18 40 65 58 62 69 78 82 105 106 92 95 102 100 97 86 76 72 67 61 58 57 51 48 46 44
10 2 6 12 6 5 7 2 4 12 7 17 11 13 2 9 13 17 16 40 36 35 42 57 64 81 93 92 92 84 90 91 87 82 75 72 67 63 61 57 57 52 50 45
11 5 9 9 11 14 19 20 14 10 8 14 28 18 23 16 15 20 43 31 48 12 38 44 63 71 74 86 91 85 85 95 92 86 79 73 69 71 62 60 62 55 50 44
2 7 6 10 23 31 34 35 30 20 24 14 13 25 16 7 9 9 42 46 57 44 37 66 76 80 81 87 90 88 100 100 93 84 83 78 77 72 66 67 60 53 44 36
7 6 6 12 26 17 19 27 34 32 34 28 24 32 11 11 3 11 15 25 64 35 24 49 68 83 93 96 93 103 109 104 96 90 84 87 81 71 66 59 51 45 37 30
8 5 7 11 17 27 10 1 26 21 28 38 18 18 8 8 6 4 22 28 57 59 49 54 64 79 75 92 104 111 108 101 97 96 94 84 74 68 60 53 44 35 29 22
11 2 3 11 13 6 11 26 28 29 18 19 11 11 18 15 28 40 39 60 62 58 70 74 76 70 70 88 104 104 104 102 99 95 87 77 68 61 51 41 34 28 22 16
32 10 6 5 4 16 11 18 20 17 11 18 16 23 27 44 52 36 51 68 75 80 73 77 81 78 73 92 98 108 105 101 94 86 78 67 61 52 41 33 27 23 17 16
26 24 6 2 5 7 8 43 54 25 1 29 15 24 26 29 18 6 38 65 76 78 90 92 91 91 93 96 92 106 100 93 85 73 65 53 45 37 31 25 23 20 15 14
3 4 8 6 7 10 23 50 44 3 8 39 27 19 23 19 25 36 59 66 72 79 84 85 82 78 82 90 88 99 90 81 70 61 52 42 33 29 25 23 21 19 19 21
7 7 3 4 4 8 44 31 9 12 46 28 12 56 60 62 55 64 68 69 70 76 77 81 83 84 82 73 65 80 75 62 54 50 45 39 32 26 23 21 25 25 25 22
6 9 6 6 4 22 33 24 39 41 44 9 61 61 71 68 64 70 69 70 71 77 80 79 79 73 64 63 59 64 56 49 46 43 39 32 28 26 28 33 37 34 28 23
13 17 6 4 10 19 38 42 45 36 42 53 72 71 72 72 72 72 73 71 74 80 81 77 80 77 71 59 55 53 44 40 35 33 30 26 24 30 33 31 29 27 27 24
8 15 10 5 11 3 43 45 46 48 51 63 63 75 76 80 67 74 72 71 74 71 64 61 58 62 57 48 44 34 29 24 25 24 22 22 24 26 31 32 31 26 26 20
20 9 9 10 28 17 32 46 51 71 61 61 70 62 66 78 73 74 69 66 63 57 53 52 50 48 43 34 30 24 18 13 15 21 23 21 23 26 23 23 32 31 26 22
Wind_Direction_500mb
232 202 231 200 226 255 267 274 272 274 262 228 250 265 263 254 231 241 230 231 230 232 228 221 214 209 203 195 206 206 204 210 206 205 205 202 208 209 208 216 223 220 220 224
261 239 234 211 233 237 243 254 261 275 267 264 265 268 269 257 237 236 233 231 241 243 241 233 228 233 216 203 202 203 209 219 211 213 214 213 212 213 216 215 227 231 232 230
216 227 208 221 233 240 242 242 258 255 263 259 271 275 262 246 254 259 241 233 233 240 228 227 224 220 231 220 207 205 213 211 208 215 211 211 218 217 212 211 221 231 233 237
227 261 243 275 290 259 252 261 272 288 256 249 237 260 257 227 230 235 242 232 228 236 240 230 226 223 228 235 230 212 203 208 216 216 214 219 224 217 218 217 214 223 234 238
265 282 262 257 240 244 268 286 322 306 305 195 281 249 268 191 244 240 230 240 235 234 232 231 233 234 229 230 227 215 207 211 216 216 218 219 223 225 223 222 219 227 232 238
269 273 252 241 247 224 252 259 331 280 187 255 250 189 261 238 216 261 264 270 270 230 230 226 227 226 228 228 224 216 209 209 213 210 214 220 221 224 227 227 223 218 220 226
277 262 262 232 256 274 228 105 284 225 214 220 226 256 252 258 244 221 245 251 249 230 225 221 227 222 220 216 215 213 210 206 206 208 213 216 216 217 215 214 212 209 218 215
251 241 217 223 211 184 190 169 189 248 183 240 230 204 248 251 262 247 239 249 252 239 229 223 232 222 217 212 215 211 210 205 204 207 212 208 214 216 215 218 216 207 219 222
289 250 340 328 244 161 180 167 196 209 260 247 235 280 283 263 263 263 255 250 254 241 231 230 234 230 221 220 217 216 209 205 202 204 210 206 207 210 212 212 214 220 218 209
229 286 350 275 293 225 158 158 171 313 188 208 241 242 241 303 253 299 284 296 270 262 260 243 235 228 223 226 216 217 209 207 205 209 209 207 201 205 210 211 217 204 197 204
263 202 246 304 245 217 139 207 87 115 165 185 264 254 310 275 15 303 299 304 302 287 269 254 241 235 227 220 212 205 203 202 203 202 200 197 198 195 197 203 199 193 195 198
297 171 252 253 320 49 93 79 30 178 214 244 170 249 271 7 342 275 305 320 303 266 259 258 243 228 217 209 201 199 196 197 197 194 190 190 189 187 189 186 186 186 185 185
329 296 314 350 240 37 43 337 171 269 250 215 206 264 234 6 340 326 317 332 309 210 231 245 235 203 200 189 186 178 180 188 186 184 183 180 182 179 177 186 177 181 180 176
268 225 196 229 250 286 278 265 227 231 273 233 235 275 294 296 323 339 328 337 317 155 163 161 166 163 165 168 170 158 163 176 174 175 173 170 173 170 178 178 170 171 174 176
102 244 246 263 269 269 270 273 268 221 233 246 238 229 261 227 268 343 333 313 288 268 129 130 129 133 138 141 150 153 158 164 165 165 166 166 164 165 170 163 166 171 173 172
356 278 299 268 271 272 276 275 270 242 230 241 250 275 216 198 192 60 352 258 258 107 88 114 126 126 136 144 145 144 149 153 158 160 160 157 156 159 161 166 165 169 168 174
276 256 360 273 316 306 293 84 312 291 219 216 211 228 134 224 62 170 140 80 61 64 77 99 113 122 130 139 142 147 149 151 152 152 150 151 154 155 157 156 161 166 174 182
256 199 268 283 327 328 1 26 329 316 212 192 244 98 105 85 61 59 97 94 86 90 84 97 106 116 124 128 139 139 141 143 144 145 146 149 151 150 151 156 165 172 174 176
210 206 265 273 291 283 303 22 344 342 327 301 120 114 113 95 74 43 84 102 106 102 107 109 117 118 114 121 129 137 136 139 139 140 140 141 146 148 153 160 163 158 156 147
203 205 220 264 306 305 354 332 326 305 68 19 32 132 134 122 89 54 78 93 104 109 116 116 124 131 129 122 131 134 132 133 132 133 135 137 141 148 153 153 151 145 142 135
77 141 225 225 242 270 359 324 316 53 314 326 330 139 90 84 98 97 101 102 108 112 119 124 123 129 136 132 126 126 127 125 129 133 134 137 140 144 147 149 150 151 151 145
0 304 44 312 307 316 344 338 40 328 302 295 100 109 104 104 103 100 99 106 115 112 119 120 117 115 121 129 124 113 115 122 129 131 131 131 133 139 146 154 149 148 146 149
25 343 348 25 358 307 327 316 312 310 275 141 115 122 121 115 106 101 98 101 107 114 116 120 123 120 119 121 115 109 112 117 120 122 123 129 133 137 148 154 150 147 146 144
348 6 12 298 358 330 359 3 6 10 123 129 131 127 122 114 115 112 114 109 103 111 116 117 116 113 109 108 103 100 102 105 114 119 122 126 137 144 148 152 151 150 155 165
312 302 341 303 340 296 21 22 32 60 112 124 125 133 125 123 117 119 113 114 118 119 117 115 107 104 104 105 102 102 103 108 118 127 133 137 144 145 154 156 160 167 169 176
342 338 40 45 23 48 43 45 62 62 73 103 115 110 116 128 118 122 118 120 118 113 111 106 104 101 98 96 97 100 102 114 129 129 124 120 137 145 145 161 171 169 170 165
Wind_Speed_850mb
11 11 27 13 20 23 25 28 28 23 15 22 39 50 36 25 29 39 49 68 54 52 55 55 42 45 40 62 77 96 90 74 66 73 68 63 69 57 49 47 44 39 36 33
5 23 19 22 24 24 32 39 46 39 32 29 40 43 25 17 16 45 51 60 75 74 70 69 61 52 43 50 70 93 95 87 89 77 74 70 66 63 52 46 50 43 46 42
25 27 15 28 35 34 36 35 35 38 35 36 35 39 27 16 17 39 63 71 86 89 74 68 71 62 59 56 68 80 88 89 87 75 85 78 66 59 59 61 56 61 50 45
25 8 19 8 23 30 32 34 34 29 17 23 10 32 33 11 19 18 31 62 72 94 94 82 75 74 75 74 65 76 92 92 93 87 82 80 70 81 79 73 64 56 51 48
30 35 28 18 19 8 24 25 11 18 3 4 16 6 11 11 14 17 20 35 67 85 102 102 90 86 76 79 81 79 96 99 97 96 80 74 75 84 93 73 67 62 61 53
36 33 14 17 18 19 38 25 11 12 3 11 22 11 27 18 16 16 18 40 47 85 88 99 83 73 79 92 83 77 106 107 104 87 88 92 80 76 72 76 72 62 57 42
20 32 35 24 20 25 16 9 4 8 12 9 17 9 23 15 25 28 35 44 54 63 79 90 79 70 68 86 82 84 97 107 104 96 96 82 71 66 68 62 63 48 44 43
14 10 19 4 27 17 14 20 9 8 8 11 11 11 22 37 26 30 60 64 58 56 72 92 83 89 83 83 76 93 99 105 107 93 93 83 66 71 68 60 50 45 46 48
9 9 11 27 18 14 8 10 23 18 18 2 7 12 20 33 29 29 30 48 48 55 59 76 90 95 91 91 84 85 102 106 109 101 93 81 71 72 66 61 49 46 48 40
7 11 7 26 12 12 12 8 5 4 12 10 10 12 20 14 9 13 10 18 38 42 56 54 77 93 98 97 90 75 108 109 106 97 86 74 68 68 62 54 48 44 40 43
14 8 6 14 7 4 6 4 7 7 7 8 5 14 3 12 7 14 17 36 55 59 60 72 72 80 103 105 89 79 102 112 99 88 83 74 70 62 55 51 51 43 42 39
9 6 7 12 9 5 6 6 2 6 9 9 7 18 2 1 5 8 18 40 65 58 62 69 78 82 105 106 92 95 102 100 97 86 76 72 67 61 58 57 51 48 46 44
10 2 6 12 6 5 7 2 4 12 7 17 11 13 2 9 13 17 16 40 36 35 42 57 64 81 93 92 92 84 90 91 87 82 75 72 67 63 61 57 57 52 50 45
11 5 9 9 11 14 19 20 14 10 8 14 28 18 23 16 15 20 43 31 48 12 38 44 63 71 74 86 91 85 85 95 92 86 79 73 69 71 62 60 62 55 50 44
2 7 6 10 23 31 34 35 30 20 24 14 13 25 16 7 9 9 42 46 57 44 37 66 76 80 81 87 90 88 100 100 93 84 83 78 77 72 66 67 60 53 44 36
7 6 6 12 26 17 19 27 34 32 34 28 24 32 11 11 3 11 15 25 64 35 24 49 68 83 93 96 93 103 109 104 96 90 84 87 81 71 66 59 51 45 37 30
8 5 7 11 17 27 10 1 26 21 28 38 18 18 8 8 6 4 22 28 57 59 49 54 64 79 75 92 104 111 108 101 97 96 94 84 74 68 60 53 44 35 29 22
11 2 3 11 13 6 11 26 28 29 18 19 11 11 18 15 28 40 39 60 62 58 70 74 76 70 70 88 104 104 104 102 99 95 87 77 68 61 51 41 34 28 22 16
32 10 6 5 4 16 11 18 20 17 11 18 16 23 27 44 52 36 51 68 75 80 73 77 81 78 73 92 98 108 105 101 94 86 78 67 61 52 41 33 27 23 17 16
26 24 6 2 5 7 8 43 54 25 1 29 15 24 26 29 18 6 38 65 76 78 90 92 91 91 93 96 92 106 100 93 85 73 65 53 45 37 31 25 23 20 15 14
3 4 8 6 7 10 23 50 44 3 8 39 27 19 23 19 25 36 59 66 72 79 84 85 82 78 82 90 88 99 90 81 70 61 52 42 33 29 25 23 21 19 19 21
7 7 3 4 4 8 44 31 9 12 46 28 12 56 60 62 55 64 68 69 70 76 77 81 83 84 82 73 65 80 75 62 54 50 45 39 32 26 23 21 25 25 25 22
6 9 6 6 4 22 33 24 39 41 44 9 61 61 71 68 64 70 69 70 71 77 80 79 79 73 64 63 59 64 56 49 46 43 39 32 28 26 28 33 37 34 28 23
13 17 6 4 10 19 38 42 45 36 42 53 72 71 72 72 72 72 73 71 74 80 81 77 80 77 71 59 55 53 44 40 35 33 30 26 24 30 33 31 29 27 27 24
8 15 10 5 11 3 43 45 46 48 51 63 63 75 76 80 67 74 72 71 74 71 64 61 58 62 57 48 44 34 29 24 25 24 22 22 24 26 31 32 31 26 26 20
20 9 9 10 28 17 32 46 51 71 61 61 70 62 66 78 73 74 69 66 63 57 53 52 50 48 43 34 30 24 18 13 15 21 23 21 23 26 23 23 32 31 26 22
Wind_Direction_850mb
232 202 231 200 226 255 267 274 272 274 262 228 250 265 263 254 231 241 230 231 230 232 228 221 214 209 203 195 206 206 204 210 206 205 205 202 208 209 208 216 223 220 220 224
261 239 234 211 233 237 243 254 261 275 267 264 265 268 269 257 237 236 233 231 241 243 241 233 228 233 216 203 202 203 209 219 211 213 214 213 212 213 216 215 227 231 232 230
216 227 208 221 233 240 242 242 258 255 263 259 271 275 262 246 254 259 241 233 233 240 228 227 224 220 231 220 207 205 213 211 208 215 211 211 218 217 212 211 221 231 233 237
227 261 243 275 290 259 252 261 272 288 256 249 237 260 257 227 230 235 242 232 228 236 240 230 226 223 228 235 230 212 203 208 216 216 214 219 224 217 218 217 214 223 234 238
265 282 262 257 240 244 268 286 322 306 305 195 281 249 268 191 244 240 230 240 235 234 232 231 233 234 229 230 227 215 207 211 216 216 218 219 223 225 223 222 219 227 232 238
269 273 252 241 247 224 252 259 331 280 187 255 250 189 261 238 216 261 264 270 270 230 230 226 227 226 228 228 224 216 209 209 213 210 214 220 221 224 227 227 223 218 220 226
277 262 262 232 256 274 228 105 284 225 214 220 226 256 252 258 244 221 245 251 249 230 225 221 227 222 220 216 215 213 210 206 206 208 213 216 216 217 215 214 212 209 218 215
251 241 217 223 211 184 190 169 189 248 183 240 230 204 248 251 262 247 239 249 252 239 229 223 232 222 217 212 215 211 210 205 204 207 212 208 214 216 215 218 216 207 219 222
289 250 340 328 244 161 180 167 196 209 260 247 235 280 283 263 263 263 255 250 254 241 231 230 234 230 221 220 217 216 209 205 202 204 210 206 207 210 212 212 214 220 218 209
229 286 350 275 293 225 158 158 171 313 188 208 241 242 241 303 253 299 284 296 270 262 260 243 235 228 223 226 216 217 209 207 205 209 209 207 201 205 210 211 217 204 197 204
263 202 246 304 245 217 139 207 87 115 165 185 264 254 310 275 15 303 299 304 302 287 269 254 241 235 227 220 212 205 203 202 203 202 200 197 198 195 197 203 199 193 195 198
297 171 252 253 320 49 93 79 30 178 214 244 170 249 271 7 342 275 305 320 303 266 259 258 243 228 217 209 201 199 196 197 197 194 190 190 189 187 189 186 186 186 185 185
329 296 314 350 240 37 43 337 171 269 250 215 206 264 234 6 340 326 317 332 309 210 231 245 235 203 200 189 186 178 180 188 186 184 183 180 182 179 177 186 177 181 180 176
268 225 196 229 250 286 278 265 227 231 273 233 235 275 294 296 323 339 328 337 317 155 163 161 166 163 165 168 170 158 163 176 174 175 173 170 173 170 178 178 170 171 174 176
102 244 246 263 269 269 270 273 268 221 233 246 238 229 261 227 268 343 333 313 288 268 129 130 129 133 138 141 150 153 158 164 165 165 166 166 164 165 170 163 166 171 173 172
356 278 299 268 271 272 276 275 270 242 230 241 250 275 216 198 192 60 352 258 258 107 88 114 126 126 136 144 145 144 149 153 158 160 160 157 156 159 161 166 165 169 168 174
276 256 360 273 316 306 293 84 312 291 219 216 211 228 134 224 62 170 140 80 61 64 77 99 113 122 130 139 142 147 149 151 152 152 150 151 154 155 157 156 161 166 174 182
256 199 268 283 327 328 1 26 329 316 212 192 244 98 105 85 61 59 97 94 86 90 84 97 106 116 124 128 139 139 141 143 144 145 146 149 151 150 151 156 165 172 174 176
210 206 265 273 291 283 303 22 344 342 327 301 120 114 113 95 74 43 84 102 106 102 107 109 117 118 114 121 129 137 136 139 139 140 140 141 146 148 153 160 163 158 156 147
203 205 220 264 306 305 354 332 326 305 68 19 32 132 134 122 89 54 78 93 104 109 116 116 124 131 129 122 131 134 132 133 132 133 135 137 141 148 153 153 151 145 142 135
77 141 225 225 242 270 359 324 316 53 314 326 330 139 90 84 98 97 101 102 108 112 119 124 123 129 136 132 126 126 127 125 129 133 134 137 140 144 147 149 150 151 151 145
0 304 44 312 307 316 344 338 40 328 302 295 100 109 104 104 103 100 99 106 115 112 119 120 117 115 121 129 124 113 115 122 129 131 131 131 133 139 146 154 149 148 146 149
25 343 348 25 358 307 327 316 312 310 275 141 115 122 121 115 106 101 98 101 107 114 116 120 123 120 119 121 115 109 112 117 120 122 123 129 133 137 148 154 150 147 146 144
348 6 12 298 358 330 359 3 6 10 123 129 131 127 122 114 115 112 114 109 103 111 116 117 116 113 109 108 103 100 102 105 114 119 122 126 137 144 148 152 151 150 155 165
312 302 341 303 340 296 21 22 32 60 112 124 125 133 125 123 117 119 113 114 118 119 117 115 107 104 104 105 102 102 103 108 118 127 133 137 144 145 154 156 160 167 169 176
342 338 40 45 23 48 43 45 62 62 73 103 115 110 116 128 118 122 118 120 118 113 111 106 104 101 98 96 97 100 102 114 129 129 124 120 137 145 145 161 171 169 170 165